Balikesir afb, Turkey

3:50 PM +03 on February 27, 2017 (GMT +0300)
Balikesir Air Base

Weather History for LTBF - September, 2013

Change the Weather History Date:

Thursday, September 26, 2013

  Actual Average Record
Temperature  
Mean Temperature 70 °F -  
Max Temperature 89 °F 72 °F 91 °F (2010)
Min Temperature 50 °F 52 °F 42 °F (2000)
Cooling Degree Days 4    
Growing Degree Days 20 (Base 50)    
Moisture  
Dew Point 45 °F    
Average Humidity 47    
Maximum Humidity 82    
Minimum Humidity 7    
Precipitation  
Precipitation 0.00 in 0.05 in - ()
Sea Level Pressure  
Sea Level Pressure 29.98 in    
Wind  
Wind Speed 2 mph ()    
Max Wind Speed 12 mph    
Max Gust Speed -    
Visibility 6.0 miles    
Events      
Averages and records for this station are not official NWS values.
T = Trace of Precipitation, MM = Missing Value Source: Averaged Metar Reports

Daily Weather History Graph

Daily Weather History Graph

Search for Another Location

Airport or City:

Trip Planner

Search our weather history database for the weather conditions in past years. The results will help you decide how hot, cold, wet, or windy it might be!

Date:

Astronomy

Sep. 26, 2013 Rise Set
Actual Time 6:59 AM EEST 6:58 PM EEST
Civil Twilight 6:32 AM EEST 7:25 PM EEST
Nautical Twilight 6:01 AM EEST 7:57 PM EEST
Astronomical Twilight 5:29 AM EEST 8:28 PM EEST
Moon 11:41 PM EEST (9/26) 1:36 PM EEST (9/26)
Length of Visible Light 12h 52m
Length of Day
11h 59m
Waning Gibbous, 57% of the Moon is Illuminated
Sep 26
Waning Gibbous
Sep 27
Last Quarter
Oct 5
New
Oct 12
First Quarter
Oct 19
Full

Hourly Weather History & Observations

Time (EEST) Temp. Dew Point Humidity Pressure Visibility Wind Dir Wind Speed Gust Speed Precip Events Conditions
12:50 AM 60.8 °F 46.4 °F 59% 30.04 in - West 2.3 mph - N/A   Clear
1:50 AM 57.2 °F 46.4 °F 67% 30.04 in - Calm Calm - N/A   Clear
2:50 AM 57.2 °F 48.2 °F 72% 30.04 in - Calm Calm - N/A   Clear
3:00 AM 57 °F 47 °F 61% 30.05 in 6 mi Calm Calm - -  
3:50 AM 55.4 °F 46.4 °F 72% 30.04 in - Calm Calm - N/A   Clear
4:50 AM 53.6 °F 46.4 °F 77% 30.04 in - Calm Calm - N/A   Clear
5:50 AM 51.8 °F 46.4 °F 82% 30.04 in - Calm Calm - N/A   Clear
6:50 AM 51.8 °F 46.4 °F 82% 30.04 in - WSW 1.2 mph - N/A   Clear
7:50 AM 51.8 °F 46.4 °F 82% 30.04 in - Calm Calm - N/A   Clear
8:50 AM 60.8 °F 48.2 °F 63% 30.06 in - Calm Calm - N/A   Clear
9:00 AM 60 °F 48 °F 55% 30.06 in 6 mi Calm Calm - -  
9:50 AM 64.4 °F 48.2 °F 56% 30.06 in - Calm Calm - N/A   Clear
10:50 AM 71.6 °F 46.4 °F 41% 30.04 in - Calm Calm - N/A   Clear
11:50 AM 77.0 °F 46.4 °F 34% 30.01 in - Variable 1.2 mph - N/A   Clear
12:50 PM 84.2 °F 48.2 °F 29% 29.98 in - Variable 1.2 mph - N/A   Clear
1:50 PM 86.0 °F 44.6 °F 23% 29.95 in - Variable 5.8 mph - N/A   Clear
2:50 PM 89.6 °F 33.8 °F 14% 29.95 in - West 9.2 mph - N/A   Clear
3:00 PM 89 °F 34 °F 7% 29.94 in 6 mi West 9.2 mph - -  
3:50 PM 89.6 °F 35.6 °F 15% 29.92 in - WSW 11.5 mph - N/A   Clear
4:50 PM 87.8 °F 37.4 °F 17% 29.92 in - SW 10.4 mph - N/A   Clear
5:50 PM 86.0 °F 44.6 °F 23% 29.89 in - SW 8.1 mph - N/A   Clear
6:50 PM 82.4 °F 46.4 °F 28% 29.89 in - WSW 8.1 mph - N/A   Clear
7:50 PM 77.0 °F 46.4 °F 34% 29.89 in - West 9.2 mph - N/A   Clear
8:50 PM 73.4 °F 44.6 °F 36% 29.92 in - Variable 2.3 mph - N/A   Clear
9:00 PM 74 °F 44 °F 23% 29.92 in 6 mi SW 2.3 mph - -  
9:50 PM 69.8 °F 46.4 °F 43% 29.92 in - Calm Calm - N/A   Clear
10:50 PM 66.2 °F 48.2 °F 52% 29.92 in - Variable 2.3 mph - N/A   Clear
11:50 PM 64.4 °F 50.0 °F 59% 29.92 in - Calm Calm - N/A   Clear